カタログに戻る

FREGAT DEB

運用中UNKNOWN
NORAD 45822·DEBRIS·🇷🇺 Russia

打ち上げ Jul 18, 2011 から Baikonur Cosmodrome

Loading…

次のパス (今後24時間)

TLE

最新Source: Space-Track

元期: Sep 14, 2026, 06:45 UTC

1 45822U 11037BG  26257.28175379  .00014943  00000-0  42093-2 0  9998
2 45822  51.3313 353.7920 1007725 277.9146  70.8703 12.96603470274282

AllMySatでFREGAT DEBをリアルタイム追跡

Download on the App Store